www.pogodaiklimat.ru

Погода и климат >> Архив погоды >> Австрия >> Шпитталь-ан-дер-Драу


ПОГОДА в Шпитталь-ан-дер-Драу

  • Прогноз погоды в Шпитталь-ан-дер-Драу
  • Монитор погоды в Шпитталь-ан-дер-Драу

АРХИВ ПОГОДЫ в Шпитталь-ан-дер-Драу

Время (UTC), дата Ветер
(напр.,м/с)
 
Видим.   Явления Облачность Т
(С)
Тd
(С)
f
(%)
Тe
(С)
Тes
(С)
Комфортность P
(гПа)
Po
(гПа)
Тmin
(С)
Tmax
(С)
R
(мм)
R24
(мм)
S
(см)
07 12.07 З 1 н/о н/о +16.7 +12.6 77 +18 +18 1013.8 951.5
08 12.07 З 1 н/о н/о +17.5 +12.3 72 +19 +19 1013.3 951.2
09 12.07 СЗ 1 н/о н/о +19.0 +12.5 66 +21 +21 комфорт 1012.8 951.1
10 12.07 штиль 0 н/о н/о +20.9 +12.7 59 +23 +23 комфорт 1012.0 950.7
11 12.07 З 1 н/о н/о +22.9 +10.2 45 +25 +25 комфорт 1011.0 950.1
12 12.07 З 1 н/о н/о +23.6 +10.0 42 +25 +25 комфорт 1010.0 949.3
13 12.07 З 1 н/о н/о +24.0 +9.6 40 +25 +25 комфорт 1009.4 948.8
14 12.07 СЗ 1 н/о н/о +24.4 +10.3 41 +25 +25 комфорт 1008.9 948.4
15 12.07 З 1 н/о н/о +23.8 +11.2 45 +25 +25 комфорт 1008.5 948.0 0.0
16 12.07 СЗ 2 н/о в посл. час осадки н/о +20.4 +15.6 74 +24 +24 комфорт 1008.8 947.7 0.4
17 12.07 З 1 н/о н/о +20.4 +10.5 53 +23 +23 комфорт 1010.0 948.7 0.0
18 12.07 С 1 н/о {осадки} н/о +20.5 +12.6 60 +24 +24 комфорт 1009.8 948.6 +14.6 +25.1 0.4
19 12.07 В 1 н/о н/о +18.1 +13.8 76 +19 +19 1010.7 948.9
20 12.07 ЮВ 1 н/о н/о +16.7 +12.7 77 +18 +18 1012.2 950.0
21 12.07 штиль 0 н/о н/о +16.2 +13.7 85 +16 +16 1012.6 950.3
22 12.07 штиль 0 н/о н/о +15.8 +13.2 85 +16 +16 1012.9 950.5
23 12.07 СЗ 1 н/о ливневой дождь н/о +15.4 +13.9 91 +16 +16 1013.8 951.3 0.0
00 13.07 З 1 н/о в посл. час осадки {ливн. осадки} н/о +15.2 +14.2 94 +16 +16 1013.2 950.7 2
01 13.07 З 1 н/о н/о +14.4 +13.4 94 +15 +15 1013.1 950.4
02 13.07 штиль 0 н/о н/о +14.3 +13.4 94 +14 +14 1012.6 949.9
03 13.07 С 1 н/о н/о +14.4 +13.6 95 +15 +15 1012.2 949.6
04 13.07 З 1 н/о н/о +13.4 +11.9 91 +14 +14 1012.6 949.7
05 13.07 штиль 0 н/о н/о +13.4 +11.9 91 +13 +13 1012.7 949.8
06 13.07 СВ 1 н/о н/о +14.0 +12.9 93 +14 +14 1012.4 949.7 +13.3 +20.8 2
07 13.07 штиль 0 н/о н/о +15.0 +12.8 87 +15 +15 1012.2 949.7
08 13.07 ЮВ 1 н/о н/о +17.3 +12.6 74 +18 +18 1011.7 949.7
09 13.07 ЮВ 1 н/о н/о +19.6 +13.2 67 +22 +22 комфорт 1010.8 949.3
10 13.07 СЗ 2 н/о н/о +22.5 +9.4 43 +24 +24 комфорт 1010.1 949.2
11 13.07 СЗ 2 н/о н/о +21.1 +6.0 37 +22 +22 комфорт 1011.0 949.7
12 13.07 З 1 н/о н/о +22.7 +4.1 30 +23 +23 комфорт 1010.1 949.1
14 13.07 С 4 н/о н/о +22.5 +6.5 36 +23 +23 комфорт 1010.3 949.3
15 13.07 С 5 н/о н/о +21.9 +6.3 36 +23 +23 комфорт 1010.7 949.6
17 13.07 СЗ 1 н/о н/о +21.5 +5.7 36 +22 +22 комфорт 1010.9 949.7
18 13.07 С 2 н/о н/о +20.0 +6.4 41 +21 +21 комфорт 1012.0 950.4 +13.8 +24.3
19 13.07 С 1 н/о н/о +19.5 +5.9 41 +21 +21 комфорт 1012.2 950.5
20 13.07 С 1 н/о н/о +18.2 +6.8 47 +19 +19 1013.3 951.3
21 13.07 З 1 н/о н/о +16.3 +7.8 57 +17 +17 1013.9 951.5
22 13.07 Ю 1 н/о н/о +16.0 +7.8 58 +17 +17 1014.1 951.6
23 13.07 Ю 1 н/о н/о +15.1 +8.3 64 +16 +16 1014.3 951.6
00 14.07 Ю 1 н/о н/о +14.7 +8.9 68 +15 +15 1014.4 951.6
01 14.07 штиль 0 н/о н/о +13.3 +9.4 77 +13 +13 1014.3 951.2
02 14.07 СЗ 1 н/о н/о +12.3 +9.5 83 +12 +12 1014.3 951.0
03 14.07 Ю 1 н/о н/о +12.2 +8.9 80 +12 +12 1014.1 950.8
04 14.07 Ю 1 н/о н/о +10.8 +8.7 87 +10 +10 1014.6 951.0
05 14.07 штиль 0 н/о н/о +12.6 +9.8 83 +12 +12 1014.1 950.9
06 14.07 С 1 н/о н/о +14.3 +9.9 75 +15 +15 1014.0 951.2 +10.8 +20.4
07 14.07 СЗ 1 н/о н/о +17.5 +9.2 58 +19 +19 1013.3 951.2
08 14.07 СЗ 1 н/о н/о +19.8 +9.1 50 +22 +22 комфорт 1012.6 951.0 0.0
09 14.07 СЗ 3 н/о н/о +19.3 +8.4 49 +20 +20 1012.5 950.8 0.0
10 14.07 СЗ 2 н/о н/о +21.4 +8.7 44 +23 +23 комфорт 1011.8 950.5
11 14.07 СЗ 2 н/о н/о +23.9 +7.3 34 +24 +24 комфорт 1010.8 950.1
12 14.07 З 1 н/о н/о +25.2 +7.2 32 +25 +25 комфорт 1010.0 949.6 0.0
13 14.07 СЗ 3 н/о н/о +23.5 +7.5 36 +24 +24 комфорт 1010.1 949.3
14 14.07 ЮВ 3 н/о н/о +23.3 +9.2 41 +25 +25 комфорт 1009.9 949.1
15 14.07 ЮВ 4 н/о н/о +22.2 +9.9 46 +24 +24 комфорт 1010.2 949.2
16 14.07 ЮВ 2 н/о н/о +20.4 +11.2 55 +23 +23 комфорт 1011.3 949.9 0.0
17 14.07 ЮВ 2 н/о в посл. час осадки н/о +20.1 +11.4 57 +22 +22 комфорт 1011.4 950.0 0.2
18 14.07 ЮВ 2 н/о {осадки} н/о +19.3 +11.0 59 +21 +21 комфорт 1011.7 950.1 +14.0 +25.2 0.2
19 14.07 штиль 0 н/о н/о +18.7 +11.6 63 +19 +19 1012.6 950.8
20 14.07 З 1 н/о н/о +16.7 +12.7 77 +18 +18 1013.6 951.4 0.0
21 14.07 СЗ 1 н/о н/о +15.1 +12.7 86 +16 +16 1014.0 951.4 0.0
22 14.07 СЗ 1 н/о н/о +14.3 +11.1 81 +15 +15 1014.4 951.6
23 14.07 штиль 0 н/о н/о +14.3 +10.7 79 +14 +14 1014.3 951.5
00 15.07 СЗ 2 н/о н/о +13.3 +9.8 79 +13 +13 1014.7 951.6 0.0
01 15.07 СЗ 1 н/о н/о +12.3 +10.7 90 +12 +12 1014.7 951.4
02 15.07 СЗ 1 н/о н/о +11.9 +10.6 92 +12 +12 1014.7 951.3
03 15.07 З 1 н/о н/о +11.5 +10.5 94 +11 +11 1015.0 951.5
04 15.07 штиль 0 н/о н/о +11.4 +10.1 92 +11 +11 1014.9 951.4
05 15.07 СЗ 1 н/о н/о +11.9 +10.3 90 +12 +12 1014.7 951.3
06 15.07 штиль 0 н/о н/о +15.3 +9.8 70 +15 +15 1013.5 950.9 +11.1 +19.6 0.0
07 15.07 ЮВ 1 н/о н/о +16.7 +10.1 65 +18 +18 1013.2 950.9
08 15.07 ЮВ 1 н/о н/о +19.0 +10.4 57 +21 +21 комфорт 1012.7 950.9
09 15.07 ЮВ 1 н/о н/о +19.0 +9.6 54 +21 +21 комфорт 1012.7 950.9
10 15.07 В 3 н/о н/о +20.8 +9.2 47 +23 +23 комфорт 1011.9 950.5
11 15.07 В 2 н/о н/о +22.0 +9.1 44 +23 +23 комфорт 1011.4 950.3
12 15.07 В 2 н/о н/о +22.1 +9.1 43 +23 +23 комфорт 1011.2 950.1 0.0
13 15.07 В 2 н/о н/о +21.9 +9.2 44 +23 +23 комфорт 1011.2 950.1 0.0
14 15.07 В 3 н/о н/о +21.6 +10.8 50 +23 +23 комфорт 1011.9 950.7 0.0
15 15.07 Ю 2 н/о в посл. час осадки н/о +20.9 +11.5 55 +24 +24 комфорт 1012.0 950.7 0.0
16 15.07 ЮВ 2 н/о н/о +21.1 +10.8 52 +23 +23 комфорт 1011.7 950.4
17 15.07 Ю 2 н/о н/о +20.4 +12.1 59 +23 +23 комфорт 1011.8 950.4
18 15.07 З 1 н/о {осадки} н/о +19.6 +12.5 64 +22 +22 комфорт 1012.6 951.0 +14.7 +23.0 0.0
19 15.07 Ю 1 н/о н/о +16.9 +12.3 74 +18 +18 1014.1 951.9 0.0
20 15.07 СЗ 1 н/о н/о +15.0 +12.0 82 +16 +16 1015.1 952.4
21 15.07 СВ 2 н/о осадки н/о +15.3 +13.7 90 +15 +15 1015.7 953.1 2
22 15.07 В 1 н/о н/о +14.1 +13.1 94 +14 +14 1016.4 953.4 0.0
23 15.07 С 1 н/о в посл. час осадки н/о +12.8 +12.1 96 +13 +13 1016.8 953.5 0.1
00 16.07 СЗ 1 н/о {ливн. осадки} н/о +11.8 +11.2 96 +12 +12 1017.0 953.5 2
01 16.07 З 1 н/о н/о +11.2 +10.7 97 +11 +11 1017.2 953.5
02 16.07 штиль 0 н/о н/о +10.3 +10.0 98 +9 +9 1017.5 953.6
03 16.07 С 1 н/о н/о +9.9 +9.6 98 +9 +9 1017.7 953.7
04 16.07 С 1 н/о н/о +10.0 +9.9 99 +9 +9 1017.7 953.7
05 16.07 С 1 н/о н/о +10.2 +10.1 99 +10 +10 1017.5 953.6
06 16.07 СЗ 2 н/о н/о +11.4 +11.3 99 +10 +10 1017.3 953.7 +9.7 +20.0 2
07 16.07 С 1 н/о н/о +13.4 +12.2 92 +14 +14 1016.5 953.4
08 16.07 ЮВ 1 н/о н/о +17.7 +11.5 67 +19 +19 1015.2 953.0
09 16.07 ЮВ 1 н/о н/о +19.0 +11.3 61 +21 +21 комфорт 1014.5 952.6
10 16.07 В 1 н/о н/о +21.6 +12.0 54 +24 +24 комфорт 1013.3 952.1
11 16.07 В 2 н/о н/о +23.7 +10.2 42 +25 +25 комфорт 1012.4 951.6
12 16.07 штиль 0 н/о н/о +25.9 +6.8 30 +26 +26 жарко 1011.4 951.0
13 16.07 З 1 н/о н/о +26.8 +5.3 25 +26 +26 жарко 1010.7 950.5
14 16.07 СЗ 2 н/о н/о +26.3 +5.2 26 +26 +26 жарко 1010.5 950.2
15 16.07 Ю 2 н/о н/о +27.8 +7.4 28 +27 +27 жарко 1009.7 949.8
16 16.07 В 1 н/о н/о +27.3 +9.5 33 +28 +28 жарко 1009.6 949.6
17 16.07 Ю 2 н/о н/о +26.5 +9.6 35 +27 +27 жарко 1009.6 949.5
18 16.07 Ю 1 н/о н/о +24.8 +9.4 38 +26 +26 жарко 1010.2 949.7 +11.1 +28.4
19 16.07 штиль 0 н/о н/о +21.5 +8.9 44 +23 +23 комфорт 1011.5 950.3
20 16.07 штиль 0 н/о н/о +18.6 +9.9 57 +19 +19 1013.2 951.3
21 16.07 ЮВ 1 н/о н/о +16.8 +9.7 63 +18 +18 1013.9 951.6
22 16.07 штиль 0 н/о н/о +15.2 +9.9 71 +15 +15 1014.8 952.1
23 16.07 штиль 0 н/о н/о +13.2 +9.8 80 +13 +13 1015.6 952.4
00 17.07 штиль 0 н/о н/о +12.4 +9.9 85 +12 +12 1016.5 953.1
01 17.07 СЗ 1 н/о н/о +11.4 +9.1 86 +11 +11 1016.7 953.1
02 17.07 СЗ 1 н/о н/о +10.4 +9.0 91 +10 +10 1017.0 953.1
03 17.07 СЗ 1 н/о н/о +9.9 +8.8 93 +9 +9 1017.1 953.1
04 17.07 С 1 н/о н/о +9.4 +8.2 92 +9 +9 1017.5 953.4
05 17.07 С 2 н/о н/о +10.5 +8.9 90 +9 +9 1017.3 953.4
06 17.07 СЗ 2 н/о н/о +13.9 +9.0 72 +13 +13 1016.3 953.2 +9.4 +25.3
07 17.07 С 1 н/о н/о +17.5 +9.3 59 +19 +19 1014.7 952.5
08 17.07 СЗ 1 н/о н/о +19.7 +8.7 49 +22 +22 комфорт 1013.6 951.9
09 17.07 З 1 н/о н/о +21.8 +7.7 40 +23 +23 комфорт 1012.3 951.1
10 17.07 З 2 н/о н/о +23.8 +7.4 35 +24 +24 комфорт 1011.0 950.2
11 17.07 Ю 2 н/о н/о +26.0 +8.9 34 +26 +26 жарко 1009.7 949.5
12 17.07 Ю 1 н/о н/о +27.7 +9.7 32 +28 +28 жарко 1008.6 948.8
13 17.07 ЮЗ 1 н/о н/о +27.5 +10.0 33 +28 +28 жарко 1008.0 948.2
14 17.07 ЮВ 2 н/о н/о +29.5 +10.2 30 +30 +30 жарко 1006.9 947.5
15 17.07 ЮВ 2 н/о н/о +28.9 +9.8 30 +29 +29 жарко 1006.0 946.6
16 17.07 С 1 н/о н/о +25.9 +12.1 42 +27 +27 жарко 1006.6 946.6
17 17.07 В 1 н/о в посл. час осадки н/о +23.7 +12.9 51 +26 +26 жарко 1007.6 947.1 0.0
18 17.07 ЮЗ 1 н/о {осадки} н/о +22.4 +13.4 57 +25 +25 комфорт 1009.7 948.9 +13.7 +29.9 0.0
19 17.07 СЗ 3 н/о осадки н/о +18.7 +14.0 74 +20 +20 1011.8 950.1 0.0
20 17.07 З 1 н/о в посл. час осадки н/о +17.4 +14.2 81 +18 +18 1013.0 951.0 0.3
21 17.07 З 1 н/о осадки н/о +16.7 +14.5 87 +18 +18 1014.5 952.2 1
22 17.07 З 1 н/о осадки н/о +16.1 +14.6 91 +17 +17 1015.5 953.1 3
23 17.07 ЮВ 1 н/о осадки н/о +15.7 +14.9 95 +16 +16 1015.0 952.5 3
00 18.07 В 1 н/о в посл. час осадки {ливн. осадки} н/о +15.7 +14.4 92 +16 +16 1014.9 952.4 7
01 18.07 СЗ 1 н/о н/о +15.3 +14.6 96 +16 +16 1014.4 951.9
02 18.07 СЗ 1 н/о н/о +14.6 +13.8 95 +15 +15 1014.3 951.6
03 18.07 С 1 н/о н/о +13.7 +12.9 95 +14 +14 1014.5 951.6
04 18.07 С 1 н/о н/о +13.2 +12.5 96 +13 +13 1014.6 951.6
05 18.07 штиль 0 н/о н/о +13.6 +12.7 94 +13 +13 1014.9 951.9
06 18.07 штиль 0 н/о н/о +15.2 +13.4 89 +15 +15 1014.7 952.1 +13.1 +22.5 7
07 18.07 штиль 0 н/о н/о +16.8 +13.7 82 +17 +17 1014.2 952.0
08 18.07 Ю 1 н/о н/о +17.8 +13.9 78 +19 +19 1013.8 951.8
09 18.07 штиль 0 н/о н/о +19.5 +13.3 67 +21 +21 комфорт 1012.9 951.3
10 18.07 штиль 0 н/о н/о +21.1 +13.5 62 +24 +24 комфорт 1012.2 951.0
11 18.07 ЮВ 1 н/о н/о +23.5 +14.2 56 +26 +26 жарко 1011.2 950.5
12 18.07 ЮЗ 1 н/о н/о +23.9 +13.1 51 +26 +26 жарко 1010.5 949.9
13 18.07 ЮЗ 1 н/о н/о +25.5 +14.3 50 +28 +28 жарко 1009.5 949.3
14 18.07 ЮВ 2 н/о н/о +26.0 +11.3 40 +27 +27 жарко 1009.0 948.9
15 18.07 ЮВ 2 н/о н/о +26.2 +10.8 38 +27 +27 жарко 1008.7 948.6
16 18.07 В 2 н/о н/о +25.7 +12.0 42 +27 +27 жарко 1009.0 948.8
17 18.07 ЮВ 3 н/о н/о +25.0 +11.8 44 +27 +27 жарко 1009.9 949.5
18 18.07 В 2 н/о осадки н/о +19.5 +13.1 66 +22 +22 комфорт 1012.6 951.0 +14.8 +27.3 2
19 18.07 ЮЗ 1 н/о осадки н/о +17.0 +13.9 82 +18 +18 1015.2 952.9 0.2
20 18.07 ЮВ 1 н/о н/о +15.9 +14.1 89 +17 +17 1016.3 953.8 0.0
21 18.07 ЮЗ 1 н/о {осадки} н/о +16.0 +13.5 85 +17 +17 1016.9 954.3 0.2
22 18.07 С 1 н/о в посл. час осадки н/о +16.1 +13.9 87 +17 +17 1017.2 954.6 0.2
23 18.07 ЮВ 1 н/о в посл. час осадки н/о +15.2 +13.8 91 +16 +16 1017.6 954.8 0.1
00 19.07 С 1 н/о {ливн. осадки} н/о +14.7 +13.6 93 +15 +15 1017.6 954.7 0.5
01 19.07 С 1 н/о н/о +14.0 +12.8 92 +14 +14 1017.9 954.8
02 19.07 З 2 н/о н/о +13.4 +12.5 94 +13 +13 1018.3 955.1
03 19.07 СВ 1 н/о н/о +12.6 +11.8 95 +13 +13 1018.6 955.2
05 19.07 штиль 0 н/о н/о +12.7 +12.0 96 +12 +12 1018.9 955.5

 

Местоположение метеостанции Шпитталь-ан-дер-Драу (Австрия): широта 46.78 долгота 13.48 высота над уровнем моря 542 м.

В архиве по умолчанию представлена погода в Шпитталь-ан-дер-Драу за последнюю неделю. Архивные данные за месяц целиком и за предыдущие месяцы, начиная с января 2011 года, Вы можете получить, выбрав интересующий диапазон дат из раскрывающегося списка и нажав кнопку "Ввод!".


*Определитесь, кто Вы:
робот инопланетянин человек

Внимание! Время в таблицах - всемирное. Для получения местного времени необходимо прибавить поправку, которая равна 1 ч.

Смотрите также архив погоды в соседних городах и на ближайших метеорологических станциях:

Погода в Гачаге (Австрия) (15 км)
Погода на Добраче (Австрия) (25 км)
Погода на Добраче АМС (Австрия) (25 км)
Погода в Арриахе (Австрия) (29 км)
Погода в Деллах-им-Драутале (Австрия) (31 км)
Погода в Мальнице (Австрия) (32 км)
Погода Тарвизио (Италия) (32 км)
Погода на Качберге (Австрия) (33 км)
Погода в Филлахе (Австрия) (35 км)
Погода в Ратеце (Словения) (36 км)

Пояснения к столбцам:

Ветер - указаны скорость ветра в м/с - средняя за 10 мин, порывы в срок и между сроками (в фигурных скобках) и направление, откуда дует ветер: С - северный, СВ - северо-восточный, В - восточный, ЮВ - юго-восточный, Ю - южный, ЮЗ - юго-западный, З - западный, СЗ - северо-западный.
Видимость - горизонтальная дальность видимости в метрах или километрах. При видимости от 1 до 10 км при отсутствии осадков обычно наблюдается дымка, при ухудшении видимости до 1 км и менее - туман. В сухую погоду видимость может ухудшаться дымом, пылью или мглою.
Явления - указаны атмосферные явления, наблюдавшиеся в срок или в последний час перед сроком; фигурными скобками обозначены явления, наблюдавшиеся между сроками (за 1-3 часа до срока); квадратными скобками обозначены град или гололедные отложения с указанием их диаметра в мм.
Облачность - указаны через наклонную черту общая и нижняя облачность в баллах и высота нижней границы облаков в метрах; квадратными скобками обозначены формы облаков: Ci - перистые, Cs - перисто-слоистые, Cc - перисто-кучевые, Ac - высококучевые, As - высокослоистые, Sc - слоисто-кучевые, Ns - слоисто-дождевые, Cu - кучевые, Cb - кучево-дождевые. Подробнее классификацию облаков см. в Атласе облаков (PDF).
T - Температура воздуха - температура, измеренная на высоте 2 м над землей.
Td - Температура точки росы - температура, при понижении до которой содержащийся в воздухе водяной пар достигнет насыщения.
f - Относительная влажность воздуха - влажноcть воздуха, измеренная на высоте 2 м над землей.
Te - Эффективная температура - температура, которую ощущает одетый по сезону человек в тени. Характеристика душности погоды. При расчете учитывается влияние влажности воздуха и скорости ветра на теплоощущения человека.
Tes - Эффективная температура на солнце - температура, которую ощущает человек, с поправкой на солнечный нагрев. Характеристика знойности погоды. Зависит от высоты солнца над горизонтом, облачности и скорости ветра. Ночью, в пасмурную погоду, а также при ветре 12 м/с и более поправка равна нулю.
P - Атмосферное давление - приведенное к уровню моря атмосферное давление.
Po - Атмосферное давление - измеренное на уровне метеостанции атмосферное давление.
Tmin - Минимальная температура - минимум температуры воздуха на высоте 2 м над землей.
Tmax - Максимальная температура - максимум температуры воздуха на высоте 2 м над землей.
R - Количество осадков - Количество выпавших осадков за период времени, мм. При наведении курсора мыши на число - период времени, за который выпало указанное количество осадков.
R24 - Количество осадков - Количество выпавших осадков за 24 часа, мм.
S - Снежный покров - Высота снежного покрова, см. При наведении курсора мыши на число - состояние снежного покрова и степень покрытия местности в баллах.